Location: Pedholt
(56.0260°N, 10.2097°E)
Time: 06:19:32
(UTC+00:00)

Cosmos 2082 Rocket - Pass Details

Date: 14 July 2020
Orbit: 834 x 853 km, 71.0° (Epoch: 14 August)

Event Time Altitude Azimuth Distance (km) Brightness Sun altitude
Exits shadow 00:40:56 - 155° (SSE) 3,037 4.7 -10.7°
Reaches altitude 10° 00:42:53 10° 143° (SE) 2,481 4.3 -10.6°
Maximum altitude 00:46:43 19° 100° (E) 1,930 4.2 -10.4°
Drops below altitude 10° 00:50:34 10° 57° (ENE) 2,489 5.5 -10.3°
Sets 00:53:42 0° 41° (NE) 3,427 6.9 -10.1°
